MESAT1

Last updated on Thu Oct 30 2025 00:03:10 GMT+0000 (Coordinated Universal Time)

1 60209U 24125G 25302.53559911 .00033177 00000+0 75770-3 0 9990 2 60209 97.2588 152.9798 0016036 352.1997 7.8999 15.42659932 73784
UTC large
Height (km)
Speed (km/s)
/
Latitude / Longitude
Inclination (degrees)
Orbital Period (minutes)
Azimuth
Elevation
Range (km)
Doppler Factor

Next 0 passes for location: London (51.5072 / 0.1276)

Sorry there are no passes over London.